Location: Hilton Head Island
(32.2163°N, 80.7526°W)
Time: 14:29:23
(UTC-05:00)

Tiangong - Pass Details

Date: 30 January 2026
Orbit: 386 x 393 km, 41.5° (Epoch: 6 February)

Event Time Altitude Azimuth Distance (km) Brightness Sun altitude
Exits shadow 05:46:47 60° 7° (N) 452 -1.9 -19.5°
Maximum altitude 05:46:57 62° 27° (NNE) 446 -1.9 -19.5°
Drops below altitude 10° 05:50:08 10° 109° (ESE) 1,424 2.0 -18.8°
Sets 05:52:14 0° 112° (ESE) 2,278 3.3 -18.4°
